Tracking 19247 objects as of 22-Sep-2018
HD Live streaming from Space Station
objects crossing your sky now

NIMBUS 2 DEB

Track NIMBUS 2 DEB now!
10-day predictions


NORAD ID: 28977
Int'l Code: 1966-040AN
Perigee: 1,064.2 km
Apogee: 1,142.4 km
Inclination: 100.5 °
Period: 107.2 minutes
Semi major axis: 7474 km
RCS: 0.0252 m2 (small)
Launch date: May 15, 1966
Source: United States (US)
Launch site: AIR FORCE WESTERN TEST RANGE (AFWTR)

Note: This is SATELLITE DEBRIS
aabbcc
Your satellite tracking list
Your tracking list is empty




NASA's NSSDC Master Catalog

Two Line Element Set (TLE):
1 28977U 66040AN  18264.92478769 +.00000475 +00000-0 +90212-3 0  9995
2 28977 100.4543 060.3234 0052320 010.1481 144.0567 13.43541254632478
Source of the keplerian elements: AFSPC